STARLINK-4719, 53774

Orbit data source: Space-Track

STARLINK-4719, 53774 is a payload satellite owned by SpaceX/Seattle (US) in LEO that was launched on Sun, 11 Sep 2022 UTC via an FALCON 9 launch vehicle from the Air Force Eastern Test Range (AFETR). Payload-class satellites include a variety of spacecraft equipped with specific instruments for various scientific and technological missions. These include communications satellites like Starlink; space stations such as the ISS; scientific satellites like the Hubble; Earth observation satellites from companies like Planet Labs, Umbra, and HawkEye 360; GPS; miniature CubeSats for education and research; and military/defense satellites.

Loading next visibility...
Identifier
53774, 2022-111B
Orbit
LEO
Country
Flag of USUS
Related business
Manufacturer
SpaceX/Seattle
Mission
Operational Commercial Communications
Bus & Motor
STARLINK, Unknown motor
Mass
305 kg wet, ~290 kg dry
Launch date (UTC)
2022-09-11 (3 years ago)
Launch vehicle
FALCON 9
Launch site
Air Force Eastern Test Range (AFETR)
Object type
Payload
Rocket body
Debris
Shape & HBR
Box + 1 Pan, 10.1 m
Radar Cross Section
13.562 m², Large (>1 m²)

Expand to show TLE details & history
Last TLE update: 5 hours ago

TLE from 5 hours ago
0 STARLINK-4719
1 53774U 22111B   26035.47826183 -.00000160  00000-0  80615-5 0  9991
2 53774  53.2182  73.0999 0001496  93.2201 266.8962 15.08838819188695
Epoch: 2026-02-04T11:28Z
TLE epoch observation values (Epoch: 2026-02-04T11:28:41.822Z)
Latitude
-0.00003°
Longitude
126.28135°
Altitude
540.701 km
Speed
7.593 km/s
True Right ascension
04h 52m 23s
True Declination
0° 00' 00"
Sunlit
Object was in full shadow at epoch
Visualization orbit readout
Latitude
Unknown
Longitude
Unknown
Altitude
Unknown
Speed
Unknown
Apparent Right ascension
Unknown
Apparent Declination
Unknown
Sunlit
N/A
Visualization observer readout
Local Sidereal Time
18:43:38
Azimuth
Unknown
Elevation
Unknown
Doppler factor
Unknown
Orbital elements
Apogee altitude
541.027 km
Perigee altitude
538.957 km
Semi-major axis
6,918.129 km
Eccentricity
0.00015
Inclination
53.2182°
RAAN
73.0999°
Arg. of periapsis
93.2201°
True anomaly
266.87908°
Mean anomaly
266.8962°
Eccentric anomaly
266.88764°
Mean motion
3.7719 °/min
Orbital period
95.44 mins
BSTAR
0.0000080615
Loading maneuver chart data...
Computing Atmospheric mass density...
Loading historical data...
Loading historical data...
Loading historical data...
Loading historical data...
Loading historical data...
Loading historical data...
Loading historical data...

Documentation

Showing up to 5 results
|